TimeEDT,TemperatureF,Dew PointF,Humidity,Sea Level PressureIn,VisibilityMPH,Wind Direction,Wind SpeedMPH,Gust SpeedMPH,PrecipitationIn,Events,Conditions,WindDirDegrees,DateUTC
12:52 AM,62.1,57.9,86,29.67,10.0,Calm,Calm,-,N/A,,Mostly Cloudy,0,2013-11-02 04:52:00
1:52 AM,62.1,55.0,78,29.67,10.0,Calm,Calm,-,N/A,,Mostly Cloudy,0,2013-11-02 05:52:00
2:52 AM,59.0,48.9,69,29.67,10.0,North,5.8,-,N/A,,Partly Cloudy,350,2013-11-02 06:52:00
3:52 AM,57.9,48.0,70,29.67,10.0,NNW,4.6,-,N/A,,Mostly Cloudy,340,2013-11-02 07:52:00
4:52 AM,60.1,46.9,62,29.68,10.0,NNW,4.6,-,N/A,,Overcast,340,2013-11-02 08:52:00
5:52 AM,57.0,51.1,81,29.69,10.0,North,3.5,-,N/A,,Mostly Cloudy,10,2013-11-02 09:52:00
6:52 AM,57.0,48.9,74,29.70,10.0,Calm,Calm,-,N/A,,Mostly Cloudy,0,2013-11-02 10:52:00
7:52 AM,55.9,50.0,80,29.70,10.0,Calm,Calm,-,N/A,,Mostly Cloudy,0,2013-11-02 11:52:00
8:52 AM,57.9,52.0,81,29.72,10.0,Calm,Calm,-,N/A,,Mostly Cloudy,0,2013-11-02 12:52:00
9:52 AM,60.1,53.1,78,29.72,10.0,SSE,3.5,-,N/A,,Scattered Clouds,150,2013-11-02 13:52:00
10:52 AM,64.0,48.0,56,29.71,10.0,South,3.5,-,N/A,,Partly Cloudy,170,2013-11-02 14:52:00
11:52 AM,70.0,46.9,44,29.71,10.0,West,8.1,-,N/A,,Mostly Cloudy,280,2013-11-02 15:52:00
12:52 PM,66.9,45.0,45,29.70,10.0,NNW,13.8,-,N/A,,Mostly Cloudy,330,2013-11-02 16:52:00
1:52 PM,68.0,44.1,42,29.69,10.0,NNW,9.2,-,N/A,,Mostly Cloudy,340,2013-11-02 17:52:00
2:52 PM,66.0,43.0,43,29.69,10.0,North,9.2,-,N/A,,Overcast,350,2013-11-02 18:52:00
3:52 PM,66.0,42.1,42,29.69,10.0,NNW,13.8,-,N/A,,Overcast,330,2013-11-02 19:52:00
4:52 PM,63.0,41.0,45,29.73,10.0,NNW,15.0,25.3,0.00,,Mostly Cloudy,330,2013-11-02 20:52:00
5:52 PM,61.0,39.0,44,29.76,10.0,NW,12.7,-,0.00,Rain,Light Rain,320,2013-11-02 21:52:00
6:52 PM,61.0,36.0,39,29.81,10.0,WNW,10.4,-,0.00,,Mostly Cloudy,290,2013-11-02 22:52:00
7:52 PM,59.0,36.0,42,29.83,10.0,NNW,8.1,-,0.00,,Mostly Cloudy,330,2013-11-02 23:52:00
8:52 PM,57.0,37.0,47,29.85,10.0,NW,6.9,-,N/A,,Partly Cloudy,320,2013-11-03 00:52:00
9:52 PM,55.9,37.0,49,29.87,10.0,WNW,9.2,-,N/A,,Clear,300,2013-11-03 01:52:00
10:52 PM,55.0,37.0,51,29.88,10.0,NW,9.2,-,N/A,,Clear,320,2013-11-03 02:52:00
11:52 PM,54.0,37.0,53,29.90,10.0,NW,9.2,-,N/A,,Clear,310,2013-11-03 03:52:00